Volver al catálogo

ELECTRON KICK STAGE R/B

ActivoVLEO
NORAD 66555·ROCKET BODY·🇺🇸 United States

Lanzado Nov 20, 2025 desde Rocket Lab Launch Complex 1

Loading…

Próximos Pases (próximas 24 horas)

TLE

ActualizadoSource: Space-Track

Época: Sep 14, 2026, 15:57 UTC

1 66555U 25267B   26257.66466587  .00031149  00000-0  57875-3 0  9992
2 66555  42.0143 241.4750 0019079 160.8445 199.3120 15.48084944 45977

Sigue ELECTRON KICK STAGE R/B en tiempo real con AllMySat

Download on the App Store